K4AXV-13 Weather Reports


time (UTC)temp
C
wind
direction
speed
KPH
gust
KPH
rain 1hr
cm
rain 24hr
cm
rain mn
cm
humidity
%
barometer
mb
20260505034533 14 7 0.0 0.0 0.00 0.00 0.00
20260505034307 14 7 0.0 0.0 0.00 0.00 0.00
20260505033808 14 7 0.0 0.0 0.00 0.00 0.00
20260505033532 14 7 0.0 0.0 0.00 0.00 0.00
20260505033306 14 7 0.0 0.0 0.00 0.00 0.00
20260505032807 14 7 0.0 0.0 0.00 0.00 0.00
20260505031305 14 7 0.0 0.0 0.00 0.00 0.00
20260505024303 15 7 0.0 0.0 0.00 0.00 0.00
20260505022804 15 7 0.0 0.0 0.00 0.00 0.00
20260505022304 15 7 0.0 0.0 0.00 0.00 0.00
20260505021803 15 7 0.0 0.0 0.00 0.00 0.00
20260505021300 15 7 0.0 0.0 0.00 0.00 0.00
20260505020801 15 7 0.0 0.0 0.00 0.00 0.00
20260505020401 15 7 0.0 0.0 0.00 0.00 0.00
20260505020300 15 7 0.0 0.0 0.00 0.00 0.00
20260505015801 15 7 0.0 0.0 0.00 0.00 0.00
20260505015421 16 7 0.0 0.0 0.00 0.00 0.00
20260505015259 16 7 0.0 0.0 0.00 0.00 0.00
20260505014800 16 7 0.0 0.0 0.00 0.00 0.00
20260505014259 16 7 0.0 0.0 0.00 0.00 0.00
20260505013800 16 7 0.0 0.0 0.00 0.00 0.00
20260505011759 17 7 0.0 0.0 0.00 0.00 0.00
20260505011257 17 7 0.0 0.0 0.00 0.00 0.00
20260505010758 17 7 0.0 0.0 0.00 0.00 0.00
20260505010256 17 7 0.0 0.0 0.00 0.00 0.00
20260505005357 18 7 0.0 0.0 0.00 0.00 0.00
20260505005256 18 7 0.0 0.0 0.00 0.00 0.00
20260505004448 18 7 0.0 0.0 0.00 0.00 0.00
20260505004255 18 7 0.0 0.0 0.00 0.00 0.00
20260505002756 18 7 0.0 0.0 0.00 0.00 0.00
20260505001756 19 7 0.0 0.0 0.00 0.00 0.00
20260505000754 20 274 0.0 0.0 0.00 0.00 0.00
20260505000252 20 274 0.0 0.0 0.00 0.00 0.00
20260504235754 20 274 0.0 0.0 0.00 0.00 0.00
20260504235252 20 302 1.6 3.2 0.00 0.00 0.00
20260504234753 20 252 0.0 0.0 0.00 0.00 0.00
20260504234251 20 333 0.0 0.0 0.00 0.00 0.00
20260504233901 20 20 1.6 0.0 0.00 0.00 0.00
20260504233753 20 7 1.6 1.6 0.00 0.00 0.00
20260504233251 20 20 1.6 0.0 0.00 0.00 0.00
20260504232250 20 284 4.8 6.4 0.00 0.00 0.00
20260504231752 21 345 4.8 3.2 0.00 0.00 0.00
20260504231001 21 243 3.2 0.0 0.00 0.00 0.00
20260504230751 21 243 3.2 0.0 0.00 0.00 0.00
20260504230249 21 356 1.6 6.4 0.00 0.00 0.00
20260504225751 21 294 0.0 9.7 0.00 0.00 0.00
20260504225249 21 273 9.7 9.7 0.00 0.00 0.00
20260504224750 21 319 3.2 4.8 0.00 0.00 0.00
20260504224248 21 41 4.8 3.2 0.00 0.00 0.00
20260504223750 22 266 1.6 1.6 0.00 0.00 0.00
20260504223248 22 134 4.8 8.0 0.00 0.00 0.00
20260504222749 22 84 1.6 6.4 0.00 0.00 0.00
20260504222246 21 335 4.8 4.8 0.00 0.00 0.00
20260504221747 22 139 6.4 9.7 0.00 0.00 0.00
20260504220747 22 32 4.8 3.2 0.00 0.00 0.00
20260504215746 22 25 3.2 0.0 0.00 0.00 0.00
20260504215244 22 336 3.2 1.6 0.00 0.00 0.00
20260504214244 22 39 4.8 0.0 0.00 0.00 0.00
20260504213745 22 339 6.4 9.7 0.00 0.00 0.00
20260504213243 22 271 6.4 0.0 0.00 0.00 0.00
20260504212744 22 134 8.0 6.4 0.00 0.00 0.00
20260504212243 22 77 3.2 3.2 0.00 0.00 0.00
20260504211744 22 25 4.8 3.2 0.00 0.00 0.00
20260504211242 22 108 8.0 6.4 0.00 0.00 0.00
20260504210743 22 129 3.2 4.8 0.00 0.00 0.00
20260504210242 22 25 3.2 4.8 0.00 0.00 0.00
20260504205743 22 113 6.4 3.2 0.00 0.00 0.00
20260504205241 22 124 9.7 8.0 0.00 0.00 0.00
20260504204241 22 128 9.7 14.5 0.00 0.00 0.00
20260504203742 23 307 8.0 9.7 0.00 0.00 0.00
20260504201741 23 79 8.0 8.0 0.00 0.00 0.00
20260504195740 23 132 4.8 14.5 0.00 0.00 0.00
20260504193739 24 98 4.8 4.8 0.00 0.00 0.00
20260504191234 24 90 4.8 8.0 0.00 0.00 0.00
20260504190736 23 118 11.3 14.5 0.00 0.00 0.00
20260504185735 23 301 14.5 12.9 0.00 0.00 0.00
20260504182233 25 305 4.8 8.0 0.00 0.00 0.00
20260504181734 24 135 9.7 3.2 0.00 0.00 0.00
20260504174229 25 127 4.8 6.4 0.00 0.00 0.00
20260504173730 26 179 4.8 1.6 0.00 0.00 0.00
20260504173228 26 41 6.4 1.6 0.00 0.00 0.00
20260504172730 25 172 6.4 0.0 0.00 0.00 0.00
20260504171729 25 128 1.6 0.0 0.00 0.00 0.00
20260504170729 25 52 1.6 0.0 0.00 0.00 0.00
20260504170227 25 128 9.7 4.8 0.00 0.00 0.00
20260504160225 26 316 0.0 6.4 0.00 0.00 0.00
20260504150724 21 297 4.8 6.4 0.00 0.00 0.00
20260504150223 21 293 1.6 8.0 0.00 0.00 0.00
20260504141221 19 14 0.0 6.4 0.00 0.00 0.00
20260504140722 18 322 1.6 0.0 0.00 0.00 0.00
20260504140259 18 284 1.6 8.0 0.00 0.00 0.00
20260504130216 16 294 1.6 1.6 0.00 0.00 0.00
20260504110712 11 194 0.0 0.0 0.00 0.00 0.00
20260504110210 11 194 0.0 0.0 0.00 0.00 0.00
20260504100206 10 194 0.0 0.0 0.00 0.00 0.00
20260504081704 10 194 0.0 0.0 0.00 0.00 0.00
20260504081203 10 194 0.0 0.0 0.00 0.00 0.00
20260504080704 10 194 0.0 0.0 0.00 0.00 0.00
20260504080202 10 194 0.0 0.0 0.00 0.00 0.00
20260504070158 11 194 0.0 0.0 0.00 0.00 0.00
20260504050656 11 194 0.0 0.0 0.00 0.00 0.00
20260504050154 11 194 0.0 0.0 0.00 0.00 0.00
20260504045655 11 194 0.0 0.0 0.00 0.00 0.00
20260504045154 11 194 0.0 0.0 0.00 0.00 0.00
20260504044655 11 194 0.0 0.0 0.00 0.00 0.00
20260504044153 11 194 0.0 0.0 0.00 0.00 0.00
20260504043654 11 194 0.0 0.0 0.00 0.00 0.00
20260504043153 11 194 0.0 0.0 0.00 0.00 0.00
20260504042654 11 194 0.0 0.0 0.00 0.00 0.00
20260504041653 12 194 0.0 0.0 0.00 0.00 0.00
20260504041152 11 194 0.0 0.0 0.00 0.00 0.00
20260504040653 12 194 0.0 0.0 0.00 1.78 0.00
20260504040151 12 194 0.0 0.0 0.00 1.78 0.00
20260504035653 12 194 0.0 0.0 0.00 1.78 0.00